User: anonymous   Login
Location: Borojevi?i
(45.0486°N, 16.2297°E)
Time: 19:26:33
(UTC+00:00)
Language:

Cosmos 1464 Rocket - Orbit

View from above orbital plane
View from above orbital plane
View from above satellite
View from above satellite

Ground track
Ground track

The orbit data is extracted from the following two-line orbital elements,

1 14085U 83048B   20295.02314782 -.00000019 +00000-0 -34550-4 0  9999
2 14085 082.9410 262.8369 0032128 289.6214 070.1476 13.76295440878478
Epoch (UTC): 21 October 2020 00:33:19
Eccentricity: 0.0032128
inclination: 82.9410°
perigee height: 953 km
apogee height: 1000 km
right ascension of ascending node: 262.8369°
argument of perigee: 289.6214°
revolutions per day: 13.76295440
mean anomaly at epoch: 70.1476°
orbit number at epoch: 87847

The dashed part of the orbit path shows where the satellite is in the earth's shadow,  

DLR